Asswan, Egypt

12:11 PM EET on February 25, 2017 (GMT +0200)
Aswan International

Weather History for HESN - February, 2014

Change the Weather History Date:

Wednesday, February 12, 2014

  Actual Average Record
Temperature  
Mean Temperature 70 °F -  
Max Temperature 87 °F 78 °F 87 °F (2014)
Min Temperature 53 °F 54 °F 48 °F (1997)
Cooling Degree Days 5    
Growing Degree Days 20 (Base 50)    
Moisture  
Dew Point 25 °F    
Average Humidity 17    
Maximum Humidity 27    
Minimum Humidity 8    
Precipitation  
Precipitation 0.00 in 0.00 in - ()
Sea Level Pressure  
Sea Level Pressure 29.93 in    
Wind  
Wind Speed 5 mph ()    
Max Wind Speed 8 mph    
Max Gust Speed -    
Visibility 6.0 miles    
Events      
Averages and records for this station are not official NWS values.
T = Trace of Precipitation, MM = Missing Value Source: Averaged Metar Reports

Daily Weather History Graph

Daily Weather History Graph

Search for Another Location

Airport or City:

Trip Planner

Search our weather history database for the weather conditions in past years. The results will help you decide how hot, cold, wet, or windy it might be!

Date:

Astronomy

Feb. 12, 2014 Rise Set
Actual Time 6:24 AM EET 5:42 PM EET
Civil Twilight 6:01 AM EET 6:05 PM EET
Nautical Twilight 5:34 AM EET 6:32 PM EET
Astronomical Twilight 5:07 AM EET 6:58 PM EET
Moon 3:43 PM EET (2/12) 4:21 AM EET (2/12)
Length of Visible Light 12h 04m
Length of Day
11h 17m
Waxing Gibbous, 94% of the Moon is Illuminated
Feb 12
Waxing Gibbous
Feb 15
Full
Feb 22
Last Quarter
Mar 1
New
Mar 8
First Quarter

Hourly Weather History & Observations

Time (EET) Temp. Dew Point Humidity Pressure Visibility Wind Dir Wind Speed Gust Speed Precip Events Conditions
12:00 AM 64.4 °F 15.8 °F 15% 29.98 in - North 5.8 mph - N/A   Clear
1:00 AM 60.8 °F 17.6 °F 19% 29.95 in - North 5.8 mph - N/A   Clear
2:00 AM 60 °F 20 °F 11% 29.95 in 6 mi North 4.6 mph - -  
2:00 AM 60.8 °F 19.4 °F 20% 29.95 in - North 4.6 mph - N/A   Clear
3:00 AM 59.0 °F 19.4 °F 22% 29.95 in - North 4.6 mph - N/A   Clear
4:00 AM 57.2 °F 21.2 °F 25% 29.95 in - North 4.6 mph - N/A   Clear
5:00 AM 55 °F 16 °F 11% 29.96 in 6 mi North 5.8 mph - -  
5:00 AM 55.4 °F 15.8 °F 21% 29.95 in - North 5.8 mph - N/A   Clear
6:00 AM 55.4 °F 15.8 °F 21% 29.95 in - North 1.2 mph - N/A   Clear
7:00 AM 55.4 °F 15.8 °F 21% 29.98 in - North 4.6 mph - N/A   Clear
8:00 AM 58 °F 18 °F 11% 29.99 in 6 mi NNW 5.8 mph - -  
8:00 AM 57.2 °F 17.6 °F 21% 29.98 in - NNW 5.8 mph - N/A   Clear
9:00 AM 62.6 °F 23.0 °F 22% 29.98 in - North 6.9 mph - N/A   Clear
10:00 AM 69.8 °F 28.4 °F 21% 29.98 in - North 5.8 mph - N/A   Clear
11:00 AM 74 °F 29 °F 10% 29.95 in 6 mi North 6.9 mph - -  
11:00 AM 73.4 °F 28.4 °F 19% 29.95 in - North 6.9 mph - N/A   Clear
12:00 PM 80.6 °F 30.2 °F 16% 29.92 in - North 8.1 mph - N/A   Clear
1:00 PM 84.2 °F 30.2 °F 14% 29.89 in - North 5.8 mph - N/A   Clear
2:00 PM 85 °F 33 °F 8% 29.84 in 6 mi NW 4.6 mph - -  
2:00 PM 86.0 °F 32.0 °F 14% 29.86 in - NW 4.6 mph - N/A   Clear
3:00 PM 86.0 °F 33.8 °F 15% 29.86 in - NNW 2.3 mph - N/A   Clear
5:00 PM 85 °F 34 °F 8% 29.83 in 6 mi NNW 5.8 mph - -  
8:00 PM 76 °F 33 °F 12% 29.87 in 6 mi NNW 4.6 mph - -  
9:00 PM 73.4 °F 33.8 °F 23% 29.89 in - North 4.6 mph - N/A   Clear
11:00 PM 71 °F 33 °F 14% 29.91 in 6 mi NW 8.1 mph - -  
11:00 PM 69.8 °F 33.8 °F 27% 29.92 in - NW 8.1 mph - N/A   Clear